#timestamp,LO_Frequency,Hit,StdDev 
1514329215.2,286047003.5,N
1514329235.1,286047003.6,N
1514329236.0,286047003.6,N
1514329255.8,286047001.6,N
1514329275.7,286047003.7,N
1514329295.5,286047003.3,N
1514329315.3,286047001.4,N
1514329335.2,286047000.4,N
1514329355.0,286046999.5,N
1514329355.9,286046999.5,N
1514329375.8,286046996.5,N
1514329395.6,286046996.9,N
1514329415.4,286046998.3,N
1514329435.3,286047011.9,Y
1514329455.1,286046998.7,P
1514329475.9,286047000.0,N
1514329495.7,286047000.0,N
1514329515.5,286047000.0,N
1514329535.4,286046999.7,N
1514329555.2,286047003.5,Y
1514329575.1,286047001.4,P
1514329576.0,286047001.4,N
1514329595.8,286047002.0,N
1514329615.6,286047002.8,Y
1514329635.5,286047000.3,P
1514329655.3,286047000.9,N
1514329675.2,286046998.1,P
1514329695.9,286047000.6,N
1514329715.7,286047000.8,N
1514329735.6,286047002.4,N
1514329755.4,286047002.8,N
1514329775.2,286047002.7,N
1514329795.1,286047000.7,N
1514329796.0,286047000.7,N
1514329815.8,286046999.1,N
1514329835.7,286046998.3,N
1514329855.5,286047001.0,N
1514329875.3,286046998.9,N
1514329895.2,286046996.6,N
1514329915.0,286046996.6,N
1514329915.9,286046996.6,N
1514329935.8,286046999.6,N
1514329955.6,286046997.0,N
1514329975.4,286046998.2,N
1514329995.3,286047000.9,N
1514330015.1,286047002.7,N
1514330035.9,286047002.4,N
1514330055.7,286047004.2,N
1514330075.5,286047004.0,N
1514330095.4,286047005.5,N
1514330115.2,286047005.9,N
1514330135.0,286047005.1,N
1514330135.9,286047005.1,N
1514330155.8,286047005.7,N
1514330175.6,286047005.7,N
1514330195.5,286047005.4,N
1514330215.3,286047003.3,N
1514330235.1,286047005.4,N
1514330255.9,286047005.4,N
1514330275.7,286047004.8,N
1514330295.6,286047003.2,N
1514330315.4,286047004.1,N
1514330335.2,286047001.4,N
1514330355.1,286047001.3,N
1514330356.0,286047001.3,N
1514330375.8,286046999.9,N
1514330395.7,286047002.3,N
1514330415.5,286047000.4,N
1514330435.3,286046996.6,N
1514330455.2,286047001.1,N
1514330475.0,286046998.3,N
1514330475.9,286046998.3,N
1514330495.8,286047000.2,N
1514330515.6,286047001.4,N
1514330535.4,286047003.0,N
1514330555.3,286047005.3,N
1514330575.1,286047001.3,N
1514330595.8,286047001.8,N
1514330615.7,286047001.4,N
1514330635.5,286047002.6,N
1514330655.4,286047000.4,N
1514330675.2,286046998.4,N
1514330695.0,286046995.5,N
1514330695.9,286046995.5,N
1514330715.8,286046994.0,N
1514330735.6,286046994.6,N
1514330755.5,286046994.0,N
1514330775.3,286046996.0,N
1514330795.1,286046996.2,N
1514330815.9,286046995.6,N
1514330835.7,286046997.2,N
1514330855.5,286046998.8,N
1514330875.4,286046998.1,N
1514330895.2,286046997.6,N
1514330915.1,286046995.7,N
1514330916.0,286046995.7,N
1514330935.8,286046996.3,N
1514330955.6,286046997.6,N
1514330975.5,286046998.0,N
1514330995.3,286046998.7,N
1514331015.2,286046999.8,N
1514331035.9,286047002.8,N
1514331055.7,286047001.7,N
1514331075.6,286047000.0,N
1514331095.4,286047000.7,N
1514331115.2,286047000.3,N
1514331135.1,286047000.3,N
1514331136.0,286047000.3,N
1514331155.8,286047002.5,N
1514331175.7,286047001.7,N
1514331195.5,286047003.8,N
1514331215.3,286047003.3,N
1514331235.2,286047002.6,N
1514331255.0,286046998.4,N
1514331255.9,286046998.4,N
1514331275.8,286047000.8,N
1514331295.6,286047002.2,N
1514331315.4,286047000.6,N
1514331335.3,286046999.5,N
1514331355.1,286046996.6,N
1514331375.9,286046997.0,N
1514331395.7,286046999.1,N
1514331415.5,286046999.2,N
1514331435.4,286046997.4,N
1514331455.2,286046995.1,N
1514331475.0,286046995.9,N
1514331475.9,286046995.9,N
1514331495.8,286046994.9,N
1514331515.6,286046997.6,N
1514331535.5,286046997.8,N
1514331555.3,286046997.1,N
1514331575.1,286046996.5,N
1514331595.9,286046998.8,N
1514331615.7,286047000.0,N
1514331635.6,286046999.9,N
1514331655.4,286046998.6,N
1514331675.2,286046999.5,N
1514331695.1,286046996.9,N
1514331696.0,286046996.9,N
1514331715.8,286046999.0,N
1514331735.6,286046996.6,N
1514331755.5,286046995.2,N
1514331775.3,286046993.4,Y
1514331795.2,286046996.8,P
1514331815.0,286046999.1,N
1514331815.9,286046999.1,N
1514331835.7,286046998.5,N
1514331855.6,286047001.2,N
1514331875.4,286047001.1,N
1514331895.3,286047002.7,N
1514331915.1,286047001.1,N
1514331916.0,286047001.1,N
1514331935.8,286046998.5,N
1514331955.7,286046999.4,N
1514331975.5,286046996.5,N
1514331995.4,286046999.0,N
1514332015.2,286046999.4,N
1514332035.0,286046999.6,N
1514332035.9,286046999.6,N
1514332055.8,286046996.5,N
1514332075.6,286046996.5,N
1514332095.4,286046995.8,N
1514332115.3,286046993.8,Y
1514332135.1,286046995.1,P
1514332155.9,286046996.6,N
1514332175.7,286047000.8,N
1514332195.5,286046998.9,N
1514332215.4,286046998.4,N
1514332235.2,286046998.9,N
1514332255.1,286046999.3,N
1514332256.0,286046999.3,N
1514332275.8,286046998.6,N
1514332295.6,286046999.8,N
1514332315.5,286047004.3,N
1514332335.3,286046999.9,N
1514332355.2,286047000.0,N
1514332375.9,286047001.9,N
1514332395.7,286047001.4,N
1514332415.6,286047001.9,N
1514332435.4,286047003.7,N
1514332455.2,286047001.5,N
1514332475.1,286046998.5,N
1514332476.0,286046998.5,N
1514332495.8,286046997.7,N
1514332515.7,286046997.8,N
1514332535.5,286046999.0,N
1514332555.3,286047000.6,N
1514332575.2,286046999.2,N
1514332595.0,286046998.1,N
1514332595.9,286046998.1,N
1514332615.8,286046998.7,N
1514332635.6,286046997.0,N
1514332655.4,286047000.9,N
1514332675.3,286046998.6,N
1514332695.1,286046999.5,N
1514332715.9,286047000.7,N
1514332735.7,286047001.2,N
1514332755.5,286047001.1,N
1514332775.4,286046999.1,N
1514332795.2,286046998.4,N
